Location: Rostock
(54.0884°N, 12.1234°E)
Time: 12:32:16
(UTC+02:00)

ISS - Pass Details

Date: 26 May 2018
Orbit: 402 x 406 km, 51.6° (Epoch: 21 June)

Event Time Altitude Azimuth Distance (km) Brightness Sun altitude
Rises 22:40:40 0° 256° (WSW) 2,321 0.3 -8.2°
Reaches altitude 10° 22:42:46 10° 252° (WSW) 1,461 -0.8 -8.4°
Maximum altitude 22:45:59 54° 174° (S) 499 -3.7 -8.7°
Drops below altitude 10° 22:49:11 10° 96° (E) 1,460 -1.4 -8.9°
Enters shadow 22:51:05 - 92° (E) 2,236 -0.4 -9.1°
